AAL1526 KLAX-KMIA

Flight info

Callsign AAL1526
Flight time 4h 9m
Altitude 33000
Route DOTSS2 CNERY BLH SPTFR KA15Q ITUCO/N0450F350 ALIBY INK SJT AGJ BRKAT LCH ORICH LEV Q102 BLVNS Y290 DOWRY FROGZ5
Aircraft A321/M-SDE3FGHIRWY/LB1

Departure

Time 2026-04-24 08:51
Airport Los Angeles International Airport (KLAX)

Arrival

Time 2026-04-24 13:00
Airport Miami International Airport (KMIA)
Time Latitude Longitude Altitude Speed Heading
2026-04-24 08:27 33.94048 -118.40747 95 ft 0 kts 99°
2026-04-24 08:41 33.94050 -118.40764 95 ft 4 kts 97°
2026-04-24 08:41 33.94053 -118.40795 93 ft 4 kts 101°
2026-04-24 08:42 33.94063 -118.40822 96 ft 4 kts 141°
2026-04-24 08:42 33.94086 -118.40835 95 ft 4 kts 171°
2026-04-24 08:42 33.94095 -118.40837 94 ft 0 kts 172°
2026-04-24 08:44 33.94085 -118.40835 95 ft 4 kts 172°
2026-04-24 08:45 33.94037 -118.40828 95 ft 10 kts 172°
2026-04-24 08:45 33.93965 -118.40817 96 ft 10 kts 173°
2026-04-24 08:45 33.93897 -118.40797 97 ft 9 kts 142°
2026-04-24 08:45 33.93850 -118.40744 100 ft 10 kts 151°
2026-04-24 08:46 33.93812 -118.40673 103 ft 12 kts 94°
2026-04-24 08:46 33.93823 -118.40548 103 ft 18 kts 83°
2026-04-24 08:46 33.93837 -118.40388 104 ft 20 kts 83°
2026-04-24 08:46 33.93857 -118.40212 104 ft 23 kts 83°
2026-04-24 08:47 33.93876 -118.40016 105 ft 23 kts 83°
2026-04-24 08:47 33.93897 -118.39809 102 ft 27 kts 83°
2026-04-24 08:47 33.93919 -118.39585 103 ft 27 kts 82°
2026-04-24 08:47 33.93944 -118.39365 101 ft 27 kts 83°
2026-04-24 08:48 33.93966 -118.39144 101 ft 26 kts 83°
2026-04-24 08:48 33.93988 -118.38930 102 ft 26 kts 83°
2026-04-24 08:48 33.94010 -118.38718 102 ft 25 kts 83°
2026-04-24 08:48 33.94030 -118.38514 103 ft 24 kts 81°
2026-04-24 08:49 33.94051 -118.38315 103 ft 24 kts 83°
2026-04-24 08:49 33.94070 -118.38117 103 ft 24 kts 83°
2026-04-24 08:49 33.94050 -118.38005 106 ft 11 kts 149°
2026-04-24 08:49 33.93990 -118.38020 109 ft 9 kts 237°
2026-04-24 08:50 33.93973 -118.38142 110 ft 34 kts 263°
2026-04-24 08:50 33.93914 -118.38713 108 ft 101 kts 263°
2026-04-24 08:50 33.93803 -118.39789 111 ft 155 kts 263°
2026-04-24 08:50 33.93652 -118.41241 246 ft 185 kts 263°
2026-04-24 08:51 33.93481 -118.42766 894 ft 185 kts 262°
2026-04-24 08:51 33.93323 -118.44306 1480 ft 186 kts 263°
2026-04-24 08:51 33.93023 -118.45806 1946 ft 188 kts 245°
2026-04-24 08:51 33.92319 -118.47131 2433 ft 189 kts 230°
2026-04-24 08:52 33.91498 -118.48372 2908 ft 190 kts 231°
2026-04-24 08:52 33.90669 -118.49631 3306 ft 197 kts 231°
2026-04-24 08:52 33.89749 -118.50992 3406 ft 221 kts 231°
2026-04-24 08:52 33.88721 -118.52494 3512 ft 245 kts 230°
2026-04-24 08:53 33.87570 -118.54125 3856 ft 261 kts 229°
2026-04-24 08:53 33.86147 -118.55498 4456 ft 267 kts 205°
2026-04-24 08:53 33.84328 -118.55960 5100 ft 272 kts 178°
2026-04-24 08:53 33.82456 -118.55562 5756 ft 275 kts 168°
2026-04-24 08:54 33.80581 -118.55048 6445 ft 277 kts 168°
2026-04-24 08:54 33.78694 -118.54529 7063 ft 280 kts 168°
2026-04-24 08:54 33.76786 -118.54004 7665 ft 283 kts 169°
2026-04-24 08:54 33.74852 -118.53475 8282 ft 287 kts 169°
2026-04-24 08:55 33.72897 -118.52928 8878 ft 291 kts 166°
2026-04-24 08:55 33.71039 -118.51899 9455 ft 299 kts 148°
2026-04-24 08:55 33.69499 -118.50183 10011 ft 308 kts 129°
2026-04-24 08:55 33.68436 -118.47889 10295 ft 326 kts 111°
2026-04-24 08:56 33.67659 -118.45249 10426 ft 346 kts 110°
2026-04-24 08:56 33.66844 -118.42451 10551 ft 365 kts 110°
2026-04-24 08:56 33.65987 -118.39516 10759 ft 379 kts 110°
2026-04-24 08:56 33.65111 -118.36497 11213 ft 385 kts 108°
2026-04-24 08:57 33.64551 -118.33336 11726 ft 390 kts 96°
2026-04-24 08:57 33.64458 -118.30070 12246 ft 394 kts 89°
2026-04-24 08:57 33.64473 -118.26764 12789 ft 398 kts 90°
2026-04-24 08:57 33.64479 -118.23470 13316 ft 402 kts 90°
2026-04-24 08:58 33.64479 -118.20058 13844 ft 406 kts 90°
2026-04-24 08:58 33.64478 -118.16688 14314 ft 410 kts 90°
2026-04-24 08:58 33.64476 -118.13257 14784 ft 413 kts 90°
2026-04-24 08:58 33.64473 -118.09801 15270 ft 416 kts 90°
2026-04-24 08:59 33.64468 -118.06308 15763 ft 420 kts 90°
2026-04-24 08:59 33.64463 -118.02789 16290 ft 423 kts 90°
2026-04-24 08:59 33.64458 -117.99242 16777 ft 427 kts 90°
2026-04-24 08:59 33.64453 -117.95665 17266 ft 430 kts 91°
2026-04-24 09:00 33.64446 -117.92065 17745 ft 433 kts 91°
2026-04-24 09:00 33.64436 -117.88433 18225 ft 437 kts 91°
2026-04-24 09:00 33.64426 -117.84770 18644 ft 440 kts 91°
2026-04-24 09:00 33.64362 -117.81086 19049 ft 443 kts 96°
2026-04-24 09:01 33.63883 -117.77432 19446 ft 444 kts 106°
2026-04-24 09:01 33.63026 -117.73867 19829 ft 446 kts 109°
2026-04-24 09:01 33.62134 -117.70287 20239 ft 449 kts 109°
2026-04-24 09:01 33.61243 -117.66684 20630 ft 452 kts 109°
2026-04-24 09:02 33.60348 -117.63054 21027 ft 455 kts 109°
2026-04-24 09:02 33.59450 -117.59400 21400 ft 458 kts 109°
2026-04-24 09:02 33.58542 -117.55724 21766 ft 461 kts 109°
2026-04-24 09:02 33.57623 -117.52020 22139 ft 464 kts 109°
2026-04-24 09:03 33.56700 -117.48300 22502 ft 467 kts 109°
2026-04-24 09:03 33.55767 -117.44553 22868 ft 470 kts 109°
2026-04-24 09:03 33.54832 -117.40789 23205 ft 473 kts 109°
2026-04-24 09:03 33.53890 -117.37001 23545 ft 476 kts 109°
2026-04-24 09:04 33.52942 -117.33194 23825 ft 478 kts 109°
2026-04-24 09:04 33.51987 -117.29360 24090 ft 481 kts 109°
2026-04-24 09:04 33.51059 -117.25498 24373 ft 485 kts 105°
2026-04-24 09:04 33.50509 -117.21494 24636 ft 490 kts 96°
2026-04-24 09:05 33.50403 -117.17409 24902 ft 493 kts 91°
2026-04-24 09:05 33.50362 -117.13287 25185 ft 496 kts 91°
2026-04-24 09:05 33.50314 -117.09137 25462 ft 498 kts 91°
2026-04-24 09:05 33.50258 -117.04979 25734 ft 501 kts 91°
2026-04-24 09:06 33.50196 -117.00801 26005 ft 503 kts 91°
2026-04-24 09:06 33.50131 -116.96594 26266 ft 506 kts 91°
2026-04-24 09:06 33.50063 -116.92375 26519 ft 508 kts 91°
2026-04-24 09:06 33.49995 -116.88134 26762 ft 511 kts 91°
2026-04-24 09:07 33.49928 -116.83871 27005 ft 513 kts 91°
2026-04-24 09:07 33.49862 -116.79586 27250 ft 516 kts 91°
2026-04-24 09:07 33.49728 -116.71147 27709 ft 521 kts 91°
2026-04-24 09:08 33.49654 -116.66853 27937 ft 523 kts 91°
2026-04-24 09:08 33.49578 -116.62432 28179 ft 525 kts 91°
2026-04-24 09:08 33.49503 -116.58108 28437 ft 527 kts 91°
2026-04-24 09:08 33.49425 -116.53700 28668 ft 529 kts 91°
2026-04-24 09:09 33.49347 -116.49291 28989 ft 530 kts 91°
2026-04-24 09:09 33.49265 -116.44880 29338 ft 529 kts 91°
2026-04-24 09:09 33.49180 -116.40467 29677 ft 529 kts 91°
2026-04-24 09:09 33.49105 -116.36053 30004 ft 529 kts 91°
2026-04-24 09:10 33.49040 -116.31637 30234 ft 530 kts 91°
2026-04-24 09:10 33.48978 -116.27222 30416 ft 531 kts 91°
2026-04-24 09:10 33.48918 -116.22800 30642 ft 531 kts 91°
2026-04-24 09:10 33.48857 -116.18370 30863 ft 531 kts 91°
2026-04-24 09:11 33.48789 -116.13947 31121 ft 532 kts 91°
2026-04-24 09:11 33.48713 -116.09522 31372 ft 532 kts 91°
2026-04-24 09:11 33.48867 -116.05096 31613 ft 531 kts 82°
2026-04-24 09:11 33.49511 -116.00749 31854 ft 530 kts 73°
2026-04-24 09:12 33.50616 -115.96554 32096 ft 528 kts 67°
2026-04-24 09:12 33.51854 -115.92399 32343 ft 528 kts 67°
2026-04-24 09:12 33.53064 -115.88304 32583 ft 529 kts 67°
2026-04-24 09:12 33.54281 -115.84144 32824 ft 529 kts 68°
2026-04-24 09:13 33.56709 -115.75773 32913 ft 526 kts 68°
2026-04-24 09:13 33.59098 -115.67499 32907 ft 525 kts 68°
2026-04-24 09:14 33.61310 -115.59145 32907 ft 528 kts 78°
2026-04-24 09:14 33.61685 -115.54763 32907 ft 529 kts 90°
2026-04-24 09:14 33.61616 -115.50352 32908 ft 530 kts 92°
2026-04-24 09:15 33.61405 -115.41571 32903 ft 530 kts 92°
2026-04-24 09:15 33.61166 -115.32731 32915 ft 531 kts 92°
2026-04-24 09:16 33.60932 -115.23882 32910 ft 531 kts 92°
2026-04-24 09:16 33.60704 -115.15031 32909 ft 531 kts 92°
2026-04-24 09:17 33.60462 -115.06177 32910 ft 531 kts 92°
2026-04-24 09:17 33.60214 -114.97314 32912 ft 532 kts 92°
2026-04-24 09:18 33.59965 -114.88446 32912 ft 532 kts 92°
2026-04-24 09:18 33.59702 -114.79579 32917 ft 532 kts 92°
2026-04-24 09:19 33.58625 -114.70841 32911 ft 529 kts 105°
2026-04-24 09:19 33.56997 -114.62233 32909 ft 530 kts 105°
2026-04-24 09:20 33.55368 -114.53614 32907 ft 530 kts 105°
2026-04-24 09:20 33.53733 -114.44998 32903 ft 530 kts 105°
2026-04-24 09:21 33.52087 -114.36383 32904 ft 531 kts 105°
2026-04-24 09:21 33.50434 -114.27762 32900 ft 531 kts 105°
2026-04-24 09:22 33.48785 -114.19143 32910 ft 531 kts 105°
2026-04-24 09:22 33.47133 -114.10580 32914 ft 531 kts 105°
2026-04-24 09:23 33.45458 -114.01971 32912 ft 531 kts 105°
2026-04-24 09:23 33.43777 -113.93358 32919 ft 531 kts 105°
2026-04-24 09:24 33.42094 -113.84740 32916 ft 532 kts 105°
2026-04-24 09:24 33.40411 -113.76126 32920 ft 532 kts 105°
2026-04-24 09:25 33.38665 -113.67516 32923 ft 531 kts 107°
2026-04-24 09:25 33.36741 -113.58985 32921 ft 531 kts 108°
2026-04-24 09:26 33.34751 -113.50478 32917 ft 531 kts 108°
2026-04-24 09:26 33.32801 -113.41950 32908 ft 531 kts 107°
2026-04-24 09:27 33.30887 -113.33411 32898 ft 532 kts 107°
2026-04-24 09:27 33.28967 -113.24880 32896 ft 532 kts 108°
2026-04-24 09:28 33.27012 -113.16351 32892 ft 532 kts 108°
2026-04-24 09:28 33.25061 -113.07887 32892 ft 532 kts 108°
2026-04-24 09:29 33.23100 -112.99375 32900 ft 532 kts 108°
2026-04-24 09:29 33.21143 -112.90848 32906 ft 532 kts 108°
2026-04-24 09:30 33.19178 -112.82335 32908 ft 532 kts 108°
2026-04-24 09:30 33.17194 -112.73818 32909 ft 532 kts 108°
2026-04-24 09:31 33.15544 -112.66749 32909 ft 533 kts 108°
2026-04-24 09:31 33.13212 -112.56794 32900 ft 533 kts 108°
2026-04-24 09:32 33.11551 -112.49714 32899 ft 533 kts 108°
2026-04-24 09:32 33.09549 -112.41197 32897 ft 534 kts 108°
2026-04-24 09:33 33.07537 -112.32668 32898 ft 534 kts 108°
2026-04-24 09:33 33.05520 -112.24138 32904 ft 535 kts 108°
2026-04-24 09:34 33.03492 -112.15596 32910 ft 536 kts 108°
2026-04-24 09:34 33.01460 -112.07053 32924 ft 536 kts 109°
2026-04-24 09:35 32.99408 -111.98499 32940 ft 537 kts 109°
2026-04-24 09:35 32.97348 -111.89949 32952 ft 537 kts 109°
2026-04-24 09:36 32.95286 -111.81389 32949 ft 538 kts 109°
2026-04-24 09:36 32.93223 -111.72830 32948 ft 538 kts 109°
2026-04-24 09:37 32.91149 -111.64266 32950 ft 539 kts 109°
2026-04-24 09:37 32.89065 -111.55696 32953 ft 539 kts 109°
2026-04-24 09:38 32.86971 -111.47128 32953 ft 539 kts 109°
2026-04-24 09:38 32.84870 -111.38550 32955 ft 540 kts 109°
2026-04-24 09:39 32.82767 -111.29980 32962 ft 540 kts 109°
2026-04-24 09:39 32.80658 -111.21415 32975 ft 540 kts 109°
2026-04-24 09:40 32.78541 -111.12839 32974 ft 541 kts 109°
2026-04-24 09:40 32.76424 -111.04323 32971 ft 541 kts 109°
2026-04-24 09:41 32.74290 -110.95753 32970 ft 541 kts 109°
2026-04-24 09:41 32.72152 -110.87182 32974 ft 541 kts 109°
2026-04-24 09:42 32.70008 -110.78604 32981 ft 542 kts 110°
2026-04-24 09:42 32.67857 -110.70032 32978 ft 542 kts 110°
2026-04-24 09:43 32.65689 -110.61448 32973 ft 543 kts 110°
2026-04-24 09:43 32.63517 -110.52863 32975 ft 543 kts 110°
2026-04-24 09:44 32.61339 -110.44270 32974 ft 544 kts 110°
2026-04-24 09:44 32.59164 -110.35731 32974 ft 544 kts 110°
2026-04-24 09:45 32.56979 -110.27152 32970 ft 544 kts 110°
2026-04-24 09:45 32.54789 -110.18574 32965 ft 544 kts 110°
2026-04-24 09:46 32.52585 -110.09992 32956 ft 544 kts 110°
2026-04-24 09:46 32.50370 -110.01419 32939 ft 545 kts 110°
2026-04-24 09:47 32.48151 -109.92834 32924 ft 545 kts 110°
2026-04-24 09:47 32.45938 -109.84240 32912 ft 546 kts 110°
2026-04-24 09:48 32.43720 -109.75642 32899 ft 546 kts 110°
2026-04-24 09:48 32.41531 -109.67031 32894 ft 546 kts 110°
2026-04-24 09:49 32.39369 -109.58400 32888 ft 547 kts 110°
2026-04-24 09:49 32.37195 -109.49776 32880 ft 548 kts 110°
2026-04-24 09:50 32.35001 -109.41145 32881 ft 548 kts 110°
2026-04-24 09:50 32.32802 -109.32524 32881 ft 548 kts 110°
2026-04-24 09:51 32.30590 -109.23899 32881 ft 548 kts 110°
2026-04-24 09:51 32.28367 -109.15288 32885 ft 548 kts 110°
2026-04-24 09:52 32.26142 -109.06669 32908 ft 548 kts 110°
2026-04-24 09:52 32.23925 -108.98056 32944 ft 548 kts 110°
2026-04-24 09:53 32.21694 -108.89445 32981 ft 548 kts 110°
2026-04-24 09:53 32.19449 -108.80832 33004 ft 549 kts 110°
2026-04-24 09:54 32.17207 -108.72222 33011 ft 549 kts 110°
2026-04-24 09:54 32.14955 -108.63610 33000 ft 549 kts 111°
2026-04-24 09:55 32.12708 -108.55066 32967 ft 548 kts 111°
2026-04-24 09:55 32.10429 -108.46423 32930 ft 548 kts 111°
2026-04-24 09:56 32.08176 -108.37897 32896 ft 548 kts 111°
2026-04-24 09:56 32.05908 -108.29328 32898 ft 547 kts 111°
2026-04-24 09:57 32.03627 -108.20765 32892 ft 547 kts 111°
2026-04-24 09:57 32.01345 -108.12196 32892 ft 547 kts 111°
2026-04-24 09:58 31.99067 -108.03640 32887 ft 547 kts 111°
2026-04-24 09:58 31.96771 -107.95093 32895 ft 547 kts 111°
2026-04-24 09:59 31.94463 -107.86537 32903 ft 548 kts 111°
2026-04-24 09:59 31.92494 -107.77869 32903 ft 552 kts 99°
2026-04-24 10:00 31.92207 -107.68843 32905 ft 553 kts 89°
2026-04-24 10:00 31.92277 -107.59792 32886 ft 553 kts 89°
2026-04-24 10:01 31.92319 -107.50735 32875 ft 553 kts 90°
2026-04-24 10:01 31.92356 -107.41672 32873 ft 553 kts 89°
2026-04-24 10:02 31.92399 -107.32675 32859 ft 553 kts 90°
2026-04-24 10:02 31.92432 -107.23560 32858 ft 553 kts 90°
2026-04-24 10:03 31.92457 -107.14554 32846 ft 553 kts 90°
2026-04-24 10:03 31.92469 -107.05490 32885 ft 554 kts 89°
2026-04-24 10:04 31.92487 -106.96422 32940 ft 554 kts 90°
2026-04-24 10:04 31.92495 -106.87340 32993 ft 554 kts 90°
2026-04-24 10:05 31.92493 -106.78265 33040 ft 555 kts 90°
2026-04-24 10:05 31.92486 -106.69181 33042 ft 555 kts 90°
2026-04-24 10:06 31.92463 -106.55552 33014 ft 555 kts 90°
2026-04-24 10:07 31.92435 -106.46466 32994 ft 555 kts 90°
2026-04-24 10:07 31.92408 -106.37391 33006 ft 555 kts 90°
2026-04-24 10:08 31.92382 -106.28306 32991 ft 555 kts 90°
2026-04-24 10:08 31.92344 -106.19231 32952 ft 555 kts 90°
2026-04-24 10:09 31.92297 -106.10210 32899 ft 555 kts 90°
2026-04-24 10:09 31.92238 -106.01132 32845 ft 554 kts 90°
2026-04-24 10:10 31.92180 -105.92008 32819 ft 554 kts 90°
2026-04-24 10:10 31.92111 -105.82948 32823 ft 553 kts 90°
2026-04-24 10:11 31.92029 -105.73967 32817 ft 552 kts 90°
2026-04-24 10:11 31.91950 -105.64931 32817 ft 552 kts 90°
2026-04-24 10:12 31.91873 -105.55903 32810 ft 551 kts 90°
2026-04-24 10:12 31.91787 -105.46892 32811 ft 551 kts 90°
2026-04-24 10:13 31.91690 -105.37874 32809 ft 550 kts 90°
2026-04-24 10:13 31.91578 -105.28874 32805 ft 550 kts 90°
2026-04-24 10:14 31.91461 -105.19870 32802 ft 550 kts 90°
2026-04-24 10:14 31.91349 -105.10878 32804 ft 550 kts 90°
2026-04-24 10:15 31.91225 -105.01886 32803 ft 549 kts 90°
2026-04-24 10:15 31.91091 -104.92891 32806 ft 549 kts 90°
2026-04-24 10:16 31.90956 -104.83913 32810 ft 549 kts 90°
2026-04-24 10:16 31.90815 -104.74942 32812 ft 547 kts 90°
2026-04-24 10:17 31.90664 -104.65991 32808 ft 546 kts 90°
2026-04-24 10:17 31.90510 -104.57059 32805 ft 546 kts 90°
2026-04-24 10:18 31.90377 -104.49639 32805 ft 545 kts 90°
2026-04-24 10:18 31.90210 -104.40732 32808 ft 544 kts 90°
2026-04-24 10:19 31.90015 -104.30369 32799 ft 544 kts 90°
2026-04-24 10:19 31.89871 -104.22911 32794 ft 544 kts 90°
2026-04-24 10:20 31.89685 -104.13990 32789 ft 545 kts 90°
2026-04-24 10:20 31.89496 -104.05081 32773 ft 545 kts 90°
2026-04-24 10:21 31.89298 -103.96169 32768 ft 545 kts 90°
2026-04-24 10:21 31.89092 -103.87248 32754 ft 545 kts 90°
2026-04-24 10:22 31.88883 -103.78326 32764 ft 545 kts 90°
2026-04-24 10:22 31.88673 -103.69471 32765 ft 545 kts 90°
2026-04-24 10:23 31.88451 -103.60554 32761 ft 545 kts 91°
2026-04-24 10:23 31.88216 -103.51642 32762 ft 545 kts 91°
2026-04-24 10:24 31.87980 -103.42738 32760 ft 544 kts 91°
2026-04-24 10:24 31.87744 -103.33850 32760 ft 543 kts 91°
2026-04-24 10:25 31.87447 -103.24967 32759 ft 543 kts 96°
2026-04-24 10:25 31.86112 -103.16239 32763 ft 542 kts 102°
2026-04-24 10:26 31.84647 -103.07544 32760 ft 542 kts 102°
2026-04-24 10:26 31.83184 -102.98850 32763 ft 542 kts 102°
2026-04-24 10:27 31.81708 -102.90172 32764 ft 541 kts 102°
2026-04-24 10:27 31.80221 -102.81501 32764 ft 541 kts 102°
2026-04-24 10:28 31.78735 -102.72840 32762 ft 540 kts 102°
2026-04-24 10:28 31.77246 -102.64189 32764 ft 540 kts 102°
2026-04-24 10:29 31.75755 -102.55558 32765 ft 539 kts 102°
2026-04-24 10:29 31.74262 -102.46930 32793 ft 538 kts 102°
2026-04-24 10:30 31.72776 -102.38376 32810 ft 537 kts 102°
2026-04-24 10:30 31.71271 -102.29786 32820 ft 536 kts 102°
2026-04-24 10:31 31.69762 -102.21216 32817 ft 535 kts 102°
2026-04-24 10:31 31.68254 -102.12672 32813 ft 534 kts 102°
2026-04-24 10:32 31.66740 -102.04145 32785 ft 533 kts 102°
2026-04-24 10:32 31.65227 -101.95626 32768 ft 533 kts 102°
2026-04-24 10:33 31.63706 -101.87118 32765 ft 532 kts 102°
2026-04-24 10:33 31.62182 -101.78631 32764 ft 532 kts 102°
2026-04-24 10:34 31.60658 -101.70144 32769 ft 531 kts 102°
2026-04-24 10:34 31.59121 -101.61668 32773 ft 531 kts 102°
2026-04-24 10:35 31.57586 -101.53193 32774 ft 530 kts 102°
2026-04-24 10:35 31.56049 -101.44734 32782 ft 530 kts 102°
2026-04-24 10:36 31.54502 -101.36294 32777 ft 530 kts 103°
2026-04-24 10:36 31.52955 -101.27895 32757 ft 534 kts 104°
2026-04-24 10:37 31.51418 -101.19350 32747 ft 540 kts 103°
2026-04-24 10:37 31.49802 -101.10734 32763 ft 542 kts 104°
2026-04-24 10:38 31.48173 -101.02113 32764 ft 542 kts 104°
2026-04-24 10:38 31.46561 -100.93493 32764 ft 542 kts 104°
2026-04-24 10:39 31.44952 -100.84864 32775 ft 542 kts 104°
2026-04-24 10:39 31.43338 -100.76236 32800 ft 543 kts 104°
2026-04-24 10:40 31.41707 -100.67604 32821 ft 543 kts 104°
2026-04-24 10:40 31.40061 -100.58981 32836 ft 543 kts 104°
2026-04-24 10:41 31.38423 -100.50361 32833 ft 543 kts 104°
2026-04-24 10:41 31.37212 -100.41650 32836 ft 544 kts 95°
2026-04-24 10:42 31.36570 -100.32827 32822 ft 544 kts 95°
2026-04-24 10:42 31.35917 -100.23999 32806 ft 545 kts 95°
2026-04-24 10:43 31.35264 -100.15174 32778 ft 545 kts 95°
2026-04-24 10:43 31.34595 -100.06338 32761 ft 545 kts 95°
2026-04-24 10:44 31.33923 -99.97519 32755 ft 544 kts 95°
2026-04-24 10:44 31.33248 -99.88694 32751 ft 544 kts 95°
2026-04-24 10:45 31.32563 -99.79878 32747 ft 545 kts 96°
2026-04-24 10:45 31.31871 -99.71113 32750 ft 545 kts 96°
2026-04-24 10:46 31.31173 -99.62294 32774 ft 545 kts 96°
2026-04-24 10:46 31.30472 -99.53481 32804 ft 545 kts 96°
2026-04-24 10:47 31.29761 -99.44664 32822 ft 544 kts 96°
2026-04-24 10:47 31.29046 -99.35846 32838 ft 545 kts 96°
2026-04-24 10:48 31.28324 -99.27034 32837 ft 545 kts 96°
2026-04-24 10:48 31.27595 -99.18215 32831 ft 545 kts 96°
2026-04-24 10:49 31.26861 -99.09396 32820 ft 545 kts 96°
2026-04-24 10:49 31.26128 -99.00581 32804 ft 544 kts 96°
2026-04-24 10:50 31.25388 -98.91782 32793 ft 544 kts 96°
2026-04-24 10:50 31.24638 -98.82979 32796 ft 544 kts 96°
2026-04-24 10:51 31.23876 -98.74185 32798 ft 544 kts 96°
2026-04-24 10:51 31.23115 -98.65392 32800 ft 544 kts 96°
2026-04-24 10:52 31.22351 -98.56605 32807 ft 543 kts 96°
2026-04-24 10:52 31.21573 -98.47828 32815 ft 543 kts 96°
2026-04-24 10:53 31.20791 -98.39041 32828 ft 543 kts 96°
2026-04-24 10:53 31.20009 -98.30278 32838 ft 543 kts 97°
2026-04-24 10:54 31.19221 -98.21563 32847 ft 543 kts 97°
2026-04-24 10:54 31.18416 -98.12793 32845 ft 543 kts 97°
2026-04-24 10:55 31.17399 -98.04055 32833 ft 543 kts 100°
2026-04-24 10:55 31.16219 -97.95350 32824 ft 543 kts 100°
2026-04-24 10:56 31.15051 -97.86649 32829 ft 543 kts 99°
2026-04-24 10:56 31.13938 -97.77926 32821 ft 543 kts 99°
2026-04-24 10:57 31.12839 -97.69201 32823 ft 543 kts 99°
2026-04-24 10:57 31.11722 -97.60533 32842 ft 543 kts 99°
2026-04-24 10:58 31.10579 -97.51818 32849 ft 543 kts 99°
2026-04-24 10:58 31.09438 -97.43112 32850 ft 543 kts 99°
2026-04-24 10:59 31.08295 -97.34400 32853 ft 543 kts 99°
2026-04-24 10:59 31.07152 -97.25690 32842 ft 543 kts 99°
2026-04-24 11:00 31.05994 -97.16996 32835 ft 542 kts 99°
2026-04-24 11:00 31.04827 -97.08309 32828 ft 542 kts 100°
2026-04-24 11:01 31.03660 -96.99612 32829 ft 542 kts 99°
2026-04-24 11:01 31.02487 -96.90923 32836 ft 542 kts 99°
2026-04-24 11:02 31.01309 -96.82248 32837 ft 542 kts 99°
2026-04-24 11:02 31.00127 -96.73582 32845 ft 541 kts 99°
2026-04-24 11:03 30.98941 -96.64918 32854 ft 541 kts 99°
2026-04-24 11:03 30.97741 -96.56257 32856 ft 541 kts 99°
2026-04-24 11:04 30.96542 -96.47615 32858 ft 540 kts 99°
2026-04-24 11:04 30.95302 -96.38981 32859 ft 540 kts 104°
2026-04-24 11:05 30.93378 -96.30549 32863 ft 538 kts 107°
2026-04-24 11:05 30.91407 -96.22145 32860 ft 538 kts 107°
2026-04-24 11:06 30.89438 -96.13750 32859 ft 537 kts 107°
2026-04-24 11:06 30.87483 -96.05421 32855 ft 537 kts 107°
2026-04-24 11:07 30.84517 -95.92849 32849 ft 536 kts 107°
2026-04-24 11:07 30.82865 -95.85898 32854 ft 536 kts 107°
2026-04-24 11:08 30.80879 -95.77547 32865 ft 535 kts 107°
2026-04-24 11:08 30.78895 -95.69211 32870 ft 535 kts 107°
2026-04-24 11:09 30.76904 -95.60887 32871 ft 534 kts 107°
2026-04-24 11:09 30.74909 -95.52572 32864 ft 533 kts 107°
2026-04-24 11:10 30.72913 -95.44267 32866 ft 533 kts 107°
2026-04-24 11:10 30.70910 -95.35977 32864 ft 533 kts 107°
2026-04-24 11:11 30.68897 -95.27690 32863 ft 533 kts 107°
2026-04-24 11:11 30.66887 -95.19399 32866 ft 533 kts 107°
2026-04-24 11:12 30.64876 -95.11120 32871 ft 532 kts 107°
2026-04-24 11:12 30.62858 -95.02852 32871 ft 532 kts 107°
2026-04-24 11:13 30.60845 -94.94654 32870 ft 531 kts 107°
2026-04-24 11:13 30.58805 -94.86363 32871 ft 531 kts 107°
2026-04-24 11:14 30.56792 -94.78183 32872 ft 530 kts 107°
2026-04-24 11:14 30.54761 -94.69953 32879 ft 530 kts 107°
2026-04-24 11:15 30.52724 -94.61737 32879 ft 530 kts 107°
2026-04-24 11:15 30.50682 -94.53525 32884 ft 529 kts 107°
2026-04-24 11:16 30.48633 -94.45328 32882 ft 529 kts 107°
2026-04-24 11:16 30.46584 -94.37154 32879 ft 528 kts 107°
2026-04-24 11:17 30.44534 -94.28990 32876 ft 528 kts 107°
2026-04-24 11:17 30.42480 -94.20827 32880 ft 527 kts 107°
2026-04-24 11:18 30.40420 -94.12667 32882 ft 527 kts 107°
2026-04-24 11:18 30.38363 -94.04522 32885 ft 527 kts 107°
2026-04-24 11:19 30.36302 -93.96368 32975 ft 530 kts 107°
2026-04-24 11:19 30.35257 -93.92262 33243 ft 531 kts 107°
2026-04-24 11:19 30.34209 -93.88160 33541 ft 531 kts 107°
2026-04-24 11:20 30.33159 -93.84064 33842 ft 531 kts 107°
2026-04-24 11:20 30.32106 -93.79958 34099 ft 532 kts 107°
2026-04-24 11:20 30.31055 -93.75854 34336 ft 532 kts 106°
2026-04-24 11:20 30.30005 -93.71745 34542 ft 533 kts 106°
2026-04-24 11:21 30.28950 -93.67629 34754 ft 534 kts 106°
2026-04-24 11:21 30.27892 -93.63502 34880 ft 536 kts 106°
2026-04-24 11:21 30.25760 -93.55228 34908 ft 536 kts 106°
2026-04-24 11:22 30.23627 -93.46964 34912 ft 536 kts 106°
2026-04-24 11:22 30.21509 -93.38763 34914 ft 535 kts 106°
2026-04-24 11:23 30.19369 -93.30521 34917 ft 535 kts 106°
2026-04-24 11:23 30.17221 -93.22276 34899 ft 535 kts 106°
2026-04-24 11:24 30.15066 -93.14039 34915 ft 535 kts 106°
2026-04-24 11:24 30.12827 -93.05837 34919 ft 535 kts 108°
2026-04-24 11:25 30.10313 -92.97740 34925 ft 535 kts 110°
2026-04-24 11:25 30.07702 -92.89684 34931 ft 535 kts 110°
2026-04-24 11:26 30.05154 -92.81610 34937 ft 535 kts 109°
2026-04-24 11:26 30.02658 -92.73523 34941 ft 535 kts 109°
2026-04-24 11:27 30.00150 -92.65437 34941 ft 535 kts 109°
2026-04-24 11:27 29.97616 -92.57364 34945 ft 535 kts 109°
2026-04-24 11:28 29.95083 -92.49299 34943 ft 535 kts 109°
2026-04-24 11:28 29.92557 -92.41227 34942 ft 535 kts 109°
2026-04-24 11:29 29.90016 -92.33166 34937 ft 535 kts 109°
2026-04-24 11:29 29.87461 -92.25125 34936 ft 535 kts 109°
2026-04-24 11:30 29.84912 -92.17076 34933 ft 534 kts 109°
2026-04-24 11:30 29.82380 -92.09095 34933 ft 534 kts 109°
2026-04-24 11:31 29.79828 -92.01060 34935 ft 534 kts 109°
2026-04-24 11:31 29.77259 -91.93039 34937 ft 534 kts 109°
2026-04-24 11:32 29.74686 -91.85022 34945 ft 533 kts 109°
2026-04-24 11:32 29.72121 -91.77013 34944 ft 533 kts 109°
2026-04-24 11:33 29.69556 -91.69018 34950 ft 533 kts 109°
2026-04-24 11:33 29.66982 -91.61026 34958 ft 533 kts 109°
2026-04-24 11:34 29.64410 -91.53049 34965 ft 532 kts 109°
2026-04-24 11:34 29.61841 -91.45069 34967 ft 532 kts 109°
2026-04-24 11:35 29.59273 -91.37105 34968 ft 532 kts 109°
2026-04-24 11:35 29.56695 -91.29143 34966 ft 531 kts 109°
2026-04-24 11:36 29.54111 -91.21194 34965 ft 531 kts 109°
2026-04-24 11:36 29.51541 -91.13303 34961 ft 531 kts 109°
2026-04-24 11:37 29.48952 -91.05371 34958 ft 530 kts 109°
2026-04-24 11:37 29.46360 -90.97445 34962 ft 530 kts 109°
2026-04-24 11:38 29.43773 -90.89538 34964 ft 529 kts 109°
2026-04-24 11:38 29.41184 -90.81633 34962 ft 529 kts 109°
2026-04-24 11:39 29.38593 -90.73747 34961 ft 528 kts 109°
2026-04-24 11:39 29.35993 -90.65865 34961 ft 528 kts 109°
2026-04-24 11:40 29.33394 -90.57997 34960 ft 528 kts 109°
2026-04-24 11:40 29.30783 -90.50134 34970 ft 528 kts 109°
2026-04-24 11:41 29.28175 -90.42283 34970 ft 527 kts 109°
2026-04-24 11:41 29.25561 -90.34433 34969 ft 527 kts 109°
2026-04-24 11:42 29.22947 -90.26592 34971 ft 527 kts 109°
2026-04-24 11:42 29.20332 -90.18766 34974 ft 526 kts 109°
2026-04-24 11:43 29.17730 -90.10994 34973 ft 526 kts 109°
2026-04-24 11:43 29.14984 -90.03241 34965 ft 526 kts 111°
2026-04-24 11:44 29.12048 -89.95570 34969 ft 526 kts 112°
2026-04-24 11:44 29.09104 -89.87912 34969 ft 526 kts 111°
2026-04-24 11:45 29.06217 -89.80242 34971 ft 525 kts 111°
2026-04-24 11:45 29.03350 -89.72563 34974 ft 525 kts 111°
2026-04-24 11:46 29.00477 -89.64903 34976 ft 524 kts 111°
2026-04-24 11:46 28.97585 -89.57254 34974 ft 524 kts 111°
2026-04-24 11:47 28.94687 -89.49612 34975 ft 524 kts 111°
2026-04-24 11:47 28.91795 -89.41987 34977 ft 523 kts 111°
2026-04-24 11:48 28.88905 -89.34365 34983 ft 523 kts 111°
2026-04-24 11:48 28.86010 -89.26762 34981 ft 522 kts 111°
2026-04-24 11:49 28.83114 -89.19162 34982 ft 522 kts 111°
2026-04-24 11:49 28.80235 -89.11622 34981 ft 522 kts 111°
2026-04-24 11:50 28.77327 -89.04045 34983 ft 521 kts 111°
2026-04-24 11:50 28.74424 -88.96483 34982 ft 521 kts 111°
2026-04-24 11:51 28.71519 -88.88922 34980 ft 521 kts 111°
2026-04-24 11:51 28.68611 -88.81378 34986 ft 520 kts 111°
2026-04-24 11:52 28.65701 -88.73837 34987 ft 520 kts 111°
2026-04-24 11:52 28.62786 -88.66308 34991 ft 519 kts 111°
2026-04-24 11:53 28.59873 -88.58782 34992 ft 519 kts 111°
2026-04-24 11:53 28.56963 -88.51280 34991 ft 518 kts 111°
2026-04-24 11:54 28.54044 -88.43779 34991 ft 518 kts 111°
2026-04-24 11:54 28.51119 -88.36300 34994 ft 517 kts 111°
2026-04-24 11:55 28.48696 -88.30094 34995 ft 517 kts 111°
2026-04-24 11:55 28.45310 -88.21421 34995 ft 516 kts 111°
2026-04-24 11:56 28.42389 -88.13971 34997 ft 516 kts 111°
2026-04-24 11:56 28.39465 -88.06537 35000 ft 516 kts 111°
2026-04-24 11:57 28.37301 -88.00198 34997 ft 512 kts 104°
2026-04-24 11:57 28.35093 -87.92512 34999 ft 512 kts 104°
2026-04-24 11:58 28.32892 -87.84867 34999 ft 512 kts 104°
2026-04-24 11:58 28.30673 -87.77189 34998 ft 512 kts 105°
2026-04-24 11:59 28.28439 -87.69507 35003 ft 512 kts 105°
2026-04-24 11:59 28.26214 -87.61840 35009 ft 512 kts 105°
2026-04-24 12:00 28.23978 -87.54172 35006 ft 512 kts 105°
2026-04-24 12:00 28.21741 -87.46516 35005 ft 512 kts 105°
2026-04-24 12:01 28.19498 -87.38856 35006 ft 512 kts 104°
2026-04-24 12:01 28.17254 -87.31208 35003 ft 512 kts 104°
2026-04-24 12:02 28.15002 -87.23565 35007 ft 512 kts 105°
2026-04-24 12:02 28.12745 -87.15917 35010 ft 512 kts 104°
2026-04-24 12:03 28.10490 -87.08278 35013 ft 511 kts 104°
2026-04-24 12:03 28.08227 -87.00638 35016 ft 511 kts 104°
2026-04-24 12:04 28.05964 -86.93003 35017 ft 511 kts 104°
2026-04-24 12:04 28.03711 -86.85424 35019 ft 511 kts 104°
2026-04-24 12:05 28.01434 -86.77809 35020 ft 511 kts 104°
2026-04-24 12:05 27.99180 -86.70187 35020 ft 510 kts 104°
2026-04-24 12:06 27.96987 -86.62554 35022 ft 510 kts 104°
2026-04-24 12:06 27.94810 -86.54929 35027 ft 509 kts 104°
2026-04-24 12:07 27.92605 -86.47312 35027 ft 509 kts 104°
2026-04-24 12:07 27.90377 -86.39707 35024 ft 509 kts 104°
2026-04-24 12:08 27.88154 -86.32107 35027 ft 509 kts 104°
2026-04-24 12:08 27.85934 -86.24514 35026 ft 508 kts 104°
2026-04-24 12:09 27.83708 -86.16937 35014 ft 508 kts 104°
2026-04-24 12:09 27.81479 -86.09357 35025 ft 508 kts 104°
2026-04-24 12:10 27.79248 -86.01785 35025 ft 508 kts 104°
2026-04-24 12:11 27.75904 -85.90447 35029 ft 507 kts 105°
2026-04-24 12:11 27.73662 -85.82896 35030 ft 507 kts 105°
2026-04-24 12:12 27.71418 -85.75354 35031 ft 506 kts 105°
2026-04-24 12:12 27.69192 -85.67870 35035 ft 506 kts 105°
2026-04-24 12:13 27.66954 -85.60344 35030 ft 506 kts 105°
2026-04-24 12:13 27.64691 -85.52788 35034 ft 505 kts 105°
2026-04-24 12:14 27.62444 -85.45293 35034 ft 504 kts 105°
2026-04-24 12:14 27.60212 -85.37851 35037 ft 504 kts 105°
2026-04-24 12:15 27.58453 -85.30210 35036 ft 499 kts 97°
2026-04-24 12:15 27.57139 -85.22585 35037 ft 498 kts 97°
2026-04-24 12:16 27.55799 -85.14931 35037 ft 498 kts 97°
2026-04-24 12:16 27.54455 -85.07284 35042 ft 497 kts 97°
2026-04-24 12:17 27.53125 -84.99651 35041 ft 496 kts 97°
2026-04-24 12:17 27.51793 -84.92041 35040 ft 495 kts 98°
2026-04-24 12:18 27.50447 -84.84442 35044 ft 494 kts 98°
2026-04-24 12:18 27.49097 -84.76858 35043 ft 493 kts 98°
2026-04-24 12:19 27.47749 -84.69282 35047 ft 492 kts 98°
2026-04-24 12:19 27.46402 -84.61725 35053 ft 492 kts 98°
2026-04-24 12:20 27.45056 -84.54189 35048 ft 491 kts 99°
2026-04-24 12:20 27.43701 -84.46667 35053 ft 489 kts 99°
2026-04-24 12:21 27.42350 -84.39171 35052 ft 488 kts 99°
2026-04-24 12:21 27.41009 -84.31740 35055 ft 487 kts 99°
2026-04-24 12:22 27.39651 -84.24233 35054 ft 486 kts 99°
2026-04-24 12:22 27.38301 -84.16836 35056 ft 485 kts 99°
2026-04-24 12:23 27.36946 -84.09405 35055 ft 484 kts 100°
2026-04-24 12:23 27.35585 -84.01990 35054 ft 483 kts 100°
2026-04-24 12:24 27.34231 -83.94590 35059 ft 482 kts 100°
2026-04-24 12:24 27.32867 -83.87202 35057 ft 482 kts 100°
2026-04-24 12:25 27.31508 -83.79827 35057 ft 482 kts 100°
2026-04-24 12:25 27.30140 -83.72455 35060 ft 481 kts 101°
2026-04-24 12:26 27.28774 -83.65098 35060 ft 481 kts 101°
2026-04-24 12:26 27.27401 -83.57745 35061 ft 480 kts 101°
2026-04-24 12:27 27.26026 -83.50402 35059 ft 480 kts 101°
2026-04-24 12:27 27.24652 -83.43076 35062 ft 479 kts 101°
2026-04-24 12:28 27.23272 -83.35759 35063 ft 478 kts 101°
2026-04-24 12:28 27.21888 -83.28451 35061 ft 478 kts 101°
2026-04-24 12:29 27.20508 -83.21151 35061 ft 477 kts 101°
2026-04-24 12:29 27.19126 -83.13865 35063 ft 477 kts 101°
2026-04-24 12:30 27.17734 -83.06582 35060 ft 477 kts 101°
2026-04-24 12:30 27.16351 -82.99309 35059 ft 476 kts 101°
2026-04-24 12:31 27.14971 -82.92088 35057 ft 476 kts 102°
2026-04-24 12:31 27.13366 -82.84884 35054 ft 476 kts 111°
2026-04-24 12:32 27.10272 -82.78339 35055 ft 475 kts 122°
2026-04-24 12:32 27.06796 -82.72021 35053 ft 475 kts 122°
2026-04-24 12:33 27.03333 -82.65704 35053 ft 476 kts 122°
2026-04-24 12:33 26.99864 -82.59382 35057 ft 476 kts 122°
2026-04-24 12:34 26.96381 -82.53061 35058 ft 476 kts 122°
2026-04-24 12:34 26.92878 -82.46758 35057 ft 476 kts 125°
2026-04-24 12:35 26.88445 -82.41295 35056 ft 473 kts 141°
2026-04-24 12:35 26.83429 -82.36507 35051 ft 474 kts 141°
2026-04-24 12:36 26.78449 -82.31731 35046 ft 474 kts 141°
2026-04-24 12:36 26.73438 -82.26926 35048 ft 475 kts 141°
2026-04-24 12:36 26.70930 -82.24521 34894 ft 476 kts 141°
2026-04-24 12:37 26.68391 -82.22093 33920 ft 486 kts 141°
2026-04-24 12:37 26.65802 -82.19622 33002 ft 490 kts 141°
2026-04-24 12:37 26.63199 -82.17137 32106 ft 495 kts 141°
2026-04-24 12:37 26.60567 -82.14627 31205 ft 499 kts 141°
2026-04-24 12:38 26.57943 -82.12124 30720 ft 494 kts 141°
2026-04-24 12:38 26.55334 -82.09635 30102 ft 493 kts 141°
2026-04-24 12:38 26.52729 -82.07147 29441 ft 491 kts 140°
2026-04-24 12:39 26.45207 -81.99641 27751 ft 477 kts 139°
2026-04-24 12:39 26.42773 -81.97145 27192 ft 473 kts 139°
2026-04-24 12:39 26.40357 -81.94673 26635 ft 469 kts 139°
2026-04-24 12:40 26.37959 -81.92237 26091 ft 465 kts 139°
2026-04-24 12:40 26.35570 -81.89831 25556 ft 461 kts 139°
2026-04-24 12:40 26.33192 -81.87452 25024 ft 458 kts 139°
2026-04-24 12:40 26.30828 -81.85090 24504 ft 454 kts 139°
2026-04-24 12:41 26.28483 -81.82745 24002 ft 451 kts 139°
2026-04-24 12:41 26.26163 -81.80415 23481 ft 448 kts 139°
2026-04-24 12:41 26.24068 -81.77867 23068 ft 442 kts 127°
2026-04-24 12:41 26.22453 -81.75010 22821 ft 432 kts 117°
2026-04-24 12:42 26.21130 -81.72017 22369 ft 429 kts 116°
2026-04-24 12:42 26.19827 -81.69036 21934 ft 426 kts 116°
2026-04-24 12:42 26.18544 -81.66083 21503 ft 422 kts 116°
2026-04-24 12:42 26.17273 -81.63152 21072 ft 419 kts 116°
2026-04-24 12:43 26.16010 -81.60241 20636 ft 415 kts 116°
2026-04-24 12:43 26.14756 -81.57357 20213 ft 412 kts 116°
2026-04-24 12:43 26.13511 -81.54495 19764 ft 409 kts 116°
2026-04-24 12:43 26.12278 -81.51661 19346 ft 405 kts 117°
2026-04-24 12:44 26.11466 -81.49799 19066 ft 403 kts 117°
2026-04-24 12:44 26.09853 -81.46104 18495 ft 398 kts 117°
2026-04-24 12:44 26.09040 -81.44243 18188 ft 396 kts 117°
2026-04-24 12:44 26.07836 -81.41497 17704 ft 393 kts 117°
2026-04-24 12:45 26.06258 -81.37903 17116 ft 387 kts 117°
2026-04-24 12:45 26.05087 -81.35224 16640 ft 384 kts 117°
2026-04-24 12:45 26.04305 -81.33434 16340 ft 378 kts 117°
2026-04-24 12:45 26.03160 -81.30813 15552 ft 376 kts 117°
2026-04-24 12:46 26.02027 -81.28212 14846 ft 373 kts 117°
2026-04-24 12:46 26.00898 -81.25621 14394 ft 370 kts 117°
2026-04-24 12:46 25.99783 -81.23058 13962 ft 367 kts 117°
2026-04-24 12:46 25.98681 -81.20519 13503 ft 363 kts 117°
2026-04-24 12:47 25.97232 -81.17192 12865 ft 359 kts 117°
2026-04-24 12:47 25.96497 -81.15511 12542 ft 357 kts 117°
2026-04-24 12:47 25.95416 -81.13038 12083 ft 354 kts 117°
2026-04-24 12:47 25.94344 -81.10592 11628 ft 351 kts 117°
2026-04-24 12:48 25.93277 -81.08167 11189 ft 348 kts 117°
2026-04-24 12:48 25.92227 -81.05779 10955 ft 338 kts 117°
2026-04-24 12:48 25.91227 -81.03491 10802 ft 320 kts 116°
2026-04-24 12:48 25.90320 -81.01282 10455 ft 311 kts 115°
2026-04-24 12:49 25.89479 -80.99088 10006 ft 306 kts 114°
2026-04-24 12:49 25.88674 -80.96929 9625 ft 300 kts 113°
2026-04-24 12:49 25.87887 -80.94819 9255 ft 297 kts 113°
2026-04-24 12:49 25.87091 -80.92707 8894 ft 295 kts 113°
2026-04-24 12:50 25.86295 -80.90608 8650 ft 294 kts 113°
2026-04-24 12:50 25.85501 -80.88527 8387 ft 292 kts 114°
2026-04-24 12:50 25.84709 -80.86462 8133 ft 290 kts 114°
2026-04-24 12:50 25.83919 -80.84405 7859 ft 289 kts 114°
2026-04-24 12:51 25.83133 -80.82361 7560 ft 287 kts 114°
2026-04-24 12:51 25.82352 -80.80337 7270 ft 285 kts 114°
2026-04-24 12:51 25.81573 -80.78323 6984 ft 283 kts 114°
2026-04-24 12:51 25.80801 -80.76326 6696 ft 281 kts 113°
2026-04-24 12:52 25.80037 -80.74340 6362 ft 280 kts 113°
2026-04-24 12:52 25.79273 -80.72359 6012 ft 278 kts 113°
2026-04-24 12:52 25.78512 -80.70389 5662 ft 277 kts 113°
2026-04-24 12:52 25.77763 -80.68446 5478 ft 270 kts 112°
2026-04-24 12:53 25.77243 -80.66492 5327 ft 260 kts 98°
2026-04-24 12:53 25.77176 -80.64520 5179 ft 252 kts 86°
2026-04-24 12:53 25.77273 -80.62627 5067 ft 239 kts 87°
2026-04-24 12:53 25.77357 -80.60828 4907 ft 228 kts 87°
2026-04-24 12:54 25.77436 -80.59110 4723 ft 218 kts 87°
2026-04-24 12:54 25.77511 -80.57458 4511 ft 211 kts 87°
2026-04-24 12:54 25.77580 -80.55858 4279 ft 204 kts 88°
2026-04-24 12:54 25.77640 -80.54298 4037 ft 201 kts 88°
2026-04-24 12:55 25.77704 -80.52753 3769 ft 199 kts 88°
2026-04-24 12:55 25.77769 -80.51223 3508 ft 198 kts 88°
2026-04-24 12:55 25.77835 -80.49707 3255 ft 196 kts 89°
2026-04-24 12:55 25.77900 -80.48201 2996 ft 195 kts 89°
2026-04-24 12:56 25.77964 -80.46702 2740 ft 194 kts 89°
2026-04-24 12:56 25.78028 -80.45211 2487 ft 193 kts 89°
2026-04-24 12:56 25.78090 -80.43754 2239 ft 183 kts 89°
2026-04-24 12:56 25.78149 -80.42382 2002 ft 175 kts 89°
2026-04-24 12:57 25.78205 -80.41076 1807 ft 159 kts 89°
2026-04-24 12:57 25.78255 -80.39909 1589 ft 149 kts 88°
2026-04-24 12:57 25.78305 -80.38781 1399 ft 145 kts 89°
2026-04-24 12:57 25.78348 -80.37671 1191 ft 144 kts 89°
2026-04-24 12:58 25.78392 -80.36562 996 ft 143 kts 89°
2026-04-24 12:58 25.78441 -80.35458 823 ft 143 kts 88°
2026-04-24 12:58 25.78491 -80.34343 634 ft 143 kts 88°
2026-04-24 12:58 25.78540 -80.33261 435 ft 142 kts 88°
2026-04-24 12:59 25.78586 -80.32168 262 ft 142 kts 88°
2026-04-24 12:59 25.78632 -80.31080 63 ft 141 kts 88°
2026-04-24 12:59 25.78672 -80.30086 17 ft 108 kts 88°
2026-04-24 12:59 25.78697 -80.29454 18 ft 51 kts 86°
2026-04-24 13:00 25.78733 -80.29240 19 ft 20 kts 66°
2026-04-24 13:00 25.78797 -80.29161 17 ft 12 kts 43°
2026-04-24 13:00 25.78824 -80.29073 17 ft 9 kts 88°
2026-04-24 13:00 25.78825 -80.29040 17 ft 2 kts 86°
2026-04-24 13:01 25.78827 -80.29019 17 ft 3 kts 82°
2026-04-24 13:01 25.78833 -80.28989 17 ft 1 kts 76°
2026-04-24 13:01 25.78837 -80.28971 17 ft 3 kts 73°
2026-04-24 13:01 25.78846 -80.28938 17 ft 6 kts 73°
2026-04-24 13:02 25.78860 -80.28886 16 ft 8 kts 73°
2026-04-24 13:02 25.78884 -80.28847 16 ft 4 kts 352°
2026-04-24 13:02 25.78929 -80.28867 15 ft 9 kts 340°
2026-04-24 13:02 25.79001 -80.28874 14 ft 12 kts 356°
2026-04-24 13:03 25.79091 -80.28878 13 ft 14 kts 358°
2026-04-24 13:03 25.79198 -80.28881 13 ft 16 kts 359°
2026-04-24 13:03 25.79312 -80.28883 14 ft 16 kts 358°
2026-04-24 13:03 25.79426 -80.28889 17 ft 17 kts 357°
2026-04-24 13:04 25.79542 -80.28895 18 ft 17 kts 358°
2026-04-24 13:04 25.79659 -80.28901 20 ft 17 kts 357°
2026-04-24 13:04 25.79776 -80.28907 22 ft 17 kts 357°
2026-04-24 13:04 25.79887 -80.28912 23 ft 14 kts
2026-04-24 13:05 25.79932 -80.28828 22 ft 14 kts 86°
2026-04-24 13:05 25.79937 -80.28710 21 ft 16 kts 87°
2026-04-24 13:05 25.79943 -80.28573 19 ft 19 kts 87°
2026-04-24 13:05 25.79945 -80.28413 16 ft 22 kts 91°
2026-04-24 13:06 25.79955 -80.28269 15 ft 14 kts 87°
2026-04-24 13:06 25.79960 -80.28156 14 ft 16 kts 88°
2026-04-24 13:06 25.79965 -80.28021 12 ft 19 kts 88°
2026-04-24 13:06 25.79958 -80.27907 14 ft 11 kts 131°
2026-04-24 13:07 25.79892 -80.27867 14 ft 11 kts 128°
2026-04-24 13:07 25.79827 -80.27827 15 ft 12 kts 177°
2026-04-24 13:07 25.79797 -80.27825 16 ft 4 kts 178°
2026-04-24 13:07 25.79786 -80.27825 16 ft 0 kts 178°